Helicity
121 84 62 59 43 46 44 50 55 72 71 53 85 115 113 109 115 118 135 138 127 136 148 126 132 151 169
118 102 82 57 41 43 52 62 59 62 74 72 86 98 91 104 100 136 123 134 105 90 112 120 121 131 137
139 115 81 61 58 62 57 57 54 60 59 87 94 86 73 71 87 96 122 127 117 94 92 87 111 106 108
143 123 100 70 72 63 69 65 57 58 47 79 79 61 57 57 69 70 67 105 98 89 105 96 99 107 101
147 137 121 107 95 85 75 48 45 15 44 61 50 41 40 47 41 56 58 66 64 78 92 90 96 98 109
170 144 123 116 104 98 90 60 22 39 28 77 46 51 40 41 48 54 36 41 59 81 90 89 80 78 96
166 155 137 134 116 108 92 80 73 63 53 40 59 41 33 39 32 33 22 29 50 70 66 48 48 74 82
170 136 128 116 117 113 87 72 62 78 53 6 47 44 50 6 18 47 75 65 52 45 17 33 50 53 45
98 81 69 59 92 121 98 82 55 50 45 27 21 10 31 23 53 56 60 59 36 19 15 28 22 24 21
155 121 102 107 103 114 98 108 49 17 21 -5 11 -19 9 35 69 54 20 29 37 27 36 29 31 2 -6
153 142 136 128 125 107 89 81 61 74 57 17 23 33 -2 16 18 41 40 48 47 54 50 41 41 27 18
167 153 144 125 117 87 73 81 77 61 40 34 40 44 23 20 39 79 52 75 83 84 82 85 75 50 48
178 149 144 120 100 88 77 66 60 57 38 34 57 46 53 49 51 72 38 79 114 89 98 105 97 91 65
146 130 128 132 101 89 74 55 49 49 52 44 46 55 46 53 52 65 78 84 113 127 117 118 115 114 109
134 127 123 117 93 93 76 55 50 71 78 82 79 69 75 64 70 93 99 87 104 102 86 85 104 126 128
124 121 131 112 105 113 81 62 52 62 80 98 98 71 45 57 88 102 75 93 98 104 90 72 60 106 122
124 118 121 101 90 103 74 60 55 61 85 100 103 79 48 73 80 57 126 102 123 115 117 138 120 119 101
Wind_Speed
63 66 67 67 64 62 56 57 62 66 65 61 62 66 63 60 58 57 57 55 54 54 54 53 54 52 52
67 66 64 64 61 61 61 61 66 66 66 58 62 63 62 60 58 59 57 56 54 51 53 53 52 52 52
67 61 61 60 60 61 61 63 65 67 60 56 62 64 63 60 59 58 59 57 55 51 50 51 52 52 51
63 65 61 56 57 63 67 63 71 66 54 57 63 64 61 59 59 58 56 56 55 53 54 53 54 52 50
60 59 59 61 62 61 68 72 68 54 54 64 66 62 58 55 53 54 54 53 50 51 56 57 58 55 55
54 55 56 55 59 64 65 68 65 50 64 69 61 62 55 54 61 62 57 52 46 50 54 57 57 56 58
48 48 53 57 61 61 62 63 64 65 65 68 59 59 54 61 59 55 46 39 46 55 59 58 56 60 62
43 48 51 53 51 53 56 59 61 64 53 64 56 59 59 57 46 43 38 45 53 61 57 58 63 64 61
39 43 46 44 44 51 60 64 64 57 50 52 51 58 57 50 46 47 52 57 63 63 63 67 65 63 63
41 44 44 46 43 49 54 55 55 58 44 47 50 53 54 46 44 52 60 66 65 66 71 68 66 66 63
38 41 42 42 42 47 44 41 45 45 49 52 50 53 53 58 60 62 63 63 70 70 68 67 68 62 66
36 38 41 37 41 44 40 40 40 52 58 57 56 59 62 67 62 60 68 71 69 70 69 66 63 66 70
35 39 37 37 38 38 44 45 47 51 58 58 54 59 56 61 67 69 70 63 67 65 62 65 66 67 73
33 34 36 34 32 36 43 47 54 58 53 53 52 48 55 58 61 70 67 62 60 64 64 63 62 59 61
24 28 31 30 33 34 40 46 52 56 55 50 46 50 52 55 64 64 69 71 65 67 64 67 65 62 62
22 21 24 28 32 35 40 44 50 53 54 52 54 57 56 56 38 58 63 64 63 63 68 74 79 71 62
23 15 19 27 31 36 41 43 46 48 51 53 55 54 63 67 58 44 49 61 60 72 72 69 72 72 68
Wind_Direction
319 321 323 325 326 328 328 323 320 319 317 316 317 315 314 313 314 315 318 322 317 318 315 310 307 308 309
317 320 322 324 325 325 323 320 316 317 315 314 315 315 312 310 311 309 313 315 316 317 313 311 308 307 308
315 320 322 326 326 325 322 318 316 315 318 315 313 313 308 306 307 306 306 309 310 312 314 311 308 307 306
314 316 320 326 326 323 320 320 315 316 314 314 312 309 305 303 304 303 303 306 307 307 307 309 307 307 307
313 317 319 321 321 322 317 315 315 316 316 312 307 305 305 304 304 303 301 305 309 310 306 305 305 305 304
312 315 318 320 320 319 317 314 313 321 311 306 307 302 303 302 296 295 296 300 307 311 310 307 306 306 304
309 313 316 317 318 317 316 313 311 311 308 302 305 299 300 300 297 296 301 305 307 307 308 308 308 304 302
307 311 313 316 317 317 317 316 313 309 312 298 302 297 299 301 300 303 308 306 305 305 308 309 306 304 306
304 310 314 316 318 317 314 312 308 309 311 306 304 300 301 300 299 298 298 298 301 303 304 304 305 305 305
305 309 314 315 317 317 314 310 308 306 309 305 305 305 298 305 303 296 297 298 302 303 301 304 306 306 305
305 310 314 315 317 316 314 312 307 304 302 301 301 302 299 297 297 299 301 304 303 304 305 306 307 308 306
306 310 313 315 317 315 314 309 306 298 293 292 294 294 292 292 300 307 305 305 307 306 307 307 309 310 307
306 310 314 318 319 317 307 305 301 300 293 292 297 297 302 300 300 303 307 314 312 308 313 311 309 310 306
309 313 318 319 317 313 306 302 297 295 301 301 302 307 305 305 306 305 310 312 315 313 312 311 312 312 310
313 316 317 316 314 312 309 305 302 301 302 307 311 311 309 309 308 310 309 308 311 312 312 309 310 309 307
316 318 316 314 313 310 310 308 306 305 305 309 311 312 314 314 312 313 312 312 315 314 308 305 304 308 308
317 322 321 317 313 310 309 309 310 310 309 311 312 315 312 312 321 320 317 316 319 310 306 306 306 309 309